Date,TemperatureHighF,TemperatureAvgF,TemperatureLowF,DewpointHighF,DewpointAvgF,DewpointLowF,HumidityHigh,HumidityAvg,HumidityLow,PressureMaxIn,PressureMinIn,WindSpeedMaxMPH,WindSpeedAvgMPH,GustSpeedMaxMPH,PrecipitationSumIn
2013-1-1,51.8,51.2,50.7,46.9,46.4,46.2,85,84,82,30.23,30.17,6,2,8,0.00
2013-1-2,57.4,52.6,48.4,48.7,46.1,43.7,86,79,69,30.41,30.15,9,3,13,0.07
2013-1-3,62.4,52.4,44.8,48.4,43.9,39.4,82,74,55,30.65,30.41,7,3,10,0.00
2013-1-4,60.8,50.6,42.3,49.3,42.9,38.3,86,76,60,30.62,30.47,5,2,8,0.00
2013-1-5,57.7,49.4,43.7,48.4,43.4,39.7,87,80,69,30.47,30.20,6,1,8,0.00
2013-1-6,61.3,49.6,42.3,50.7,43.9,38.3,87,81,68,30.38,30.20,7,2,10,0.00
2013-1-7,63.7,52.6,44.8,49.5,45.4,40.8,87,77,59,30.38,30.17,7,2,11,0.00
2013-1-8,56.1,49.8,43.5,48.0,43.7,38.8,85,80,73,30.44,30.32,6,2,9,0.00
2013-1-9,56.8,52.7,48.4,46.9,45.5,43.0,84,77,67,30.35,30.23,4,1,6,0.00
2013-1-10,54.9,53.3,50.7,49.3,47.1,44.1,87,80,69,30.23,29.94,7,2,13,0.44
2013-1-11,58.6,49.9,44.2,52.7,45.2,41.2,91,84,71,30.03,29.79,16,3,20,0.06
2013-1-12,58.8,51.4,44.4,50.2,45.0,40.5,87,79,70,30.15,29.97,5,2,8,0.00
2013-1-13,59.7,54.8,51.4,54.1,49.8,45.9,87,84,77,30.12,29.82,15,4,16,0.75
2013-1-14,59.4,57.4,53.1,53.6,50.0,43.5,88,77,67,30.03,29.82,12,5,20,0.20
2013-1-15,57.9,51.7,48.0,46.2,43.0,39.4,84,73,52,30.03,29.67,8,3,17,0.06
2013-1-16,49.6,45.5,42.1,44.4,40.7,38.1,88,83,79,29.70,29.53,14,3,19,1.56
2013-1-17,51.1,44.2,39.6,46.6,39.3,35.4,87,83,76,29.58,29.38,17,4,20,0.06
2013-1-18,50.4,45.0,40.3,37.9,36.2,34.0,86,72,59,29.76,29.44,16,6,28,0.00
2013-1-19,57.4,43.4,37.8,52.9,38.0,32.9,86,81,75,29.76,29.61,19,3,19,0.05
2013-1-20,63.1,61.3,57.4,58.6,56.3,52.3,86,84,78,29.64,29.53,62,6,62,0.33
2013-1-21,59.2,55.4,50.7,54.5,48.8,43.7,87,79,59,29.64,29.44,12,3,19,0.16
2013-1-22,58.6,53.8,48.9,49.5,43.8,38.7,86,70,50,29.94,29.58,16,5,21,0.00
2013-1-23,52.7,49.1,45.5,46.6,43.9,41.4,88,82,75,29.91,29.64,11,3,19,0.74
2013-1-24,57.9,50.3,46.0,48.4,43.6,39.7,86,78,65,29.64,29.50,7,3,88,0.09
2013-1-25,56.3,49.1,43.7,43.0,39.0,35.1,83,69,57,29.76,29.50,13,5,21,0.00
2013-1-26,53.4,45.9,41.0,35.8,33.2,30.2,70,62,50,30.00,29.70,7,4,12,0.00
2013-1-27,54.9,44.4,36.3,41.2,34.2,29.1,77,68,56,30.12,29.97,7,2,9,0.00
2013-1-28,49.3,47.1,43.0,45.1,42.0,36.9,88,82,73,30.17,29.91,31,3,31,0.39
2013-1-29,59.5,50.0,42.8,47.5,42.9,37.9,84,77,60,30.35,30.15,31,2,31,0.00
2013-1-30,63.5,52.4,43.3,51.4,45.7,39.4,88,79,60,30.35,30.23,31,3,31,0.00
2013-1-31,69.1,57.8,50.9,56.8,51.1,46.2,87,79,62,30.32,30.20,31,3,60,0.00
2013-2-1,64.8,58.0,51.8,56.1,52.1,-12.6,87,81,5,30.26,29.85,8,4,12,0.00
2013-2-2,64.4,58.9,54.9,57.2,52.2,42.6,87,79,62,29.85,29.35,19,9,27,0.15
2013-2-3,58.5,52.1,46.8,45.7,39.5,28.9,82,63,45,30.12,29.41,14,5,20,0.03
2013-2-4,57.6,48.7,41.5,40.8,33.1,24.1,76,56,30,30.29,30.09,9,3,12,0.00
2013-2-5,55.4,50.5,44.2,49.8,44.0,36.3,86,79,73,30.26,29.91,9,4,14,0.00
2013-2-6,57.7,53.1,47.3,49.5,42.9,35.4,87,69,46,29.88,29.58,18,6,24,0.15
2013-2-7,51.6,45.6,41.9,44.2,40.1,35.2,89,82,67,29.67,29.50,8,3,12,0.86
2013-2-8,53.1,46.4,41.0,36.1,33.0,28.6,70,60,50,29.88,29.64,12,5,17,0.00
2013-2-9,49.1,42.7,37.8,30.0,27.5,24.8,65,56,42,30.03,29.82,12,5,20,0.00
2013-2-10,37.9,35.8,34.3,26.4,25.8,25.0,71,67,60,30.00,29.91,4,3,8,0.00
2013-2-17,47.1,44.9,43.5,40.5,39.6,38.8,84,82,77,30.15,30.06,5,2,9,0.02
2013-2-18,52.7,45.3,40.1,42.3,38.6,35.8,86,78,64,30.12,30.03,9,2,10,0.05
2013-2-19,56.7,45.9,37.4,39.0,34.9,32.0,82,67,41,30.15,30.03,8,3,11,0.00
2013-2-20,56.1,46.5,36.7,41.4,36.8,30.7,81,70,56,30.09,29.97,8,3,8,0.00
2013-2-21,57.9,48.7,39.6,44.2,39.7,34.2,82,72,50,30.00,29.73,8,3,11,0.06
2013-2-22,55.8,52.2,48.2,50.2,46.6,26.4,87,82,35,29.73,29.50,12,3,64,0.03
2013-2-23,57.7,51.0,43.9,53.2,45.7,40.1,87,82,71,29.67,29.44,17,6,25,1.04
2013-2-24,51.3,46.7,42.3,42.8,37.5,34.3,82,71,55,30.03,29.67,14,5,20,0.07
2013-2-25,48.0,44.8,42.4,41.0,39.2,36.0,88,81,75,30.17,30.00,11,4,15,0.22
2013-2-26,56.7,48.1,41.4,43.2,39.9,36.9,85,74,58,30.23,30.09,5,2,8,0.00
2013-2-27,60.4,50.2,41.4,42.8,37.9,20.3,84,64,32,30.29,30.17,8,2,13,0.00
2013-2-28,61.3,49.9,39.7,46.4,40.4,34.3,82,71,54,30.29,30.20,7,2,10,0.00
2013-3-1,56.8,51.4,45.9,43.5,41.4,38.7,82,69,55,30.20,29.91,6,3,9,0.00
2013-3-2,52.2,51.4,51.4,43.2,43.0,42.6,73,73,70,29.94,29.91,5,3,6,0.00
2013-3-3,62.4,55.8,50.0,48.9,46.1,43.5,80,71,54,30.17,30.06,8,2,12,0.00
2013-3-4,62.4,52.4,43.3,47.7,43.6,39.4,87,73,54,30.29,30.12,8,3,11,0.00
2013-3-5,60.3,53.1,43.9,46.8,42.2,38.1,86,68,48,30.29,30.03,8,3,11,0.02
2013-3-6,62.4,57.4,53.2,55.0,48.5,41.5,88,74,52,30.03,29.76,61,7,29,1.38
2013-3-7,65.5,60.4,57.6,58.5,55.9,54.0,88,85,77,29.88,29.76,8,3,12,0.09
2013-3-8,63.0,60.4,58.5,57.6,55.8,54.5,88,85,81,29.88,29.70,12,4,18,0.26
2013-3-9,70.5,63.2,58.1,59.4,55.7,53.1,89,78,55,29.88,29.73,10,4,13,0.00
2013-3-10,67.6,61.0,57.2,56.3,53.5,50.7,88,77,61,29.73,29.58,14,5,19,1.05
2013-3-11,67.3,60.9,53.6,57.6,54.3,47.8,87,80,66,29.73,29.61,14,4,17,0.04
2013-3-12,64.8,55.0,50.0,57.2,48.7,29.1,89,80,44,29.70,29.55,10,3,13,0.44
2013-3-13,59.5,53.7,49.3,54.7,49.7,45.9,89,87,80,29.61,29.35,8,2,12,0.22
2013-3-14,62.1,54.5,49.3,51.1,45.7,39.0,89,74,54,29.41,29.20,15,5,22,0.00
2013-3-15,58.6,50.1,44.6,39.4,35.1,29.1,71,57,42,30.00,29.35,12,4,18,0.00
2013-3-16,57.2,48.2,39.7,38.5,32.0,26.8,67,54,31,30.23,30.00,8,3,12,0.00
2013-3-17,54.3,50.8,45.0,46.8,40.7,36.1,81,69,58,30.20,29.82,14,6,20,0.07
2013-3-18,60.3,57.2,52.9,55.4,51.2,46.4,86,81,63,29.85,29.55,20,11,26,0.92
2013-3-19,61.7,58.1,53.4,50.0,48.0,46.4,79,70,60,29.94,29.82,16,7,20,0.00
2013-3-20,59.9,53.0,48.0,49.5,45.9,41.7,87,77,60,29.91,29.73,8,4,63,0.24
2013-3-21,64.8,56.1,48.9,49.8,44.2,31.5,87,66,37,30.09,29.73,14,5,22,0.00
2013-3-22,68.0,54.9,44.6,51.3,44.2,29.3,83,69,31,30.06,29.94,11,3,14,0.00
2013-3-23,53.8,49.3,48.6,48.6,45.3,44.4,87,86,83,30.03,29.97,4,3,5,5.95
2013-3-24,65.1,51.8,48.6,52.0,46.2,44.8,87,82,61,30.00,29.53,8,3,10,8.92
2013-3-25,61.0,56.1,49.5,53.6,48.7,40.6,88,77,64,29.64,29.35,11,3,18,1.31
2013-3-26,57.7,52.6,48.9,51.8,46.5,40.6,87,80,73,29.67,29.58,7,2,9,0.31
2013-3-27,63.9,56.6,48.6,52.2,49.2,44.4,86,77,56,29.94,29.64,8,2,11,0.00
2013-3-28,62.4,57.8,54.7,57.0,52.9,49.6,87,84,81,30.00,29.85,9,3,12,0.09
2013-3-29,68.5,63.1,59.7,59.0,57.0,55.4,87,81,67,29.97,29.85,9,5,15,0.00
2013-3-30,66.9,62.4,59.9,59.0,56.9,54.9,87,82,74,29.85,29.53,13,8,26,0.22
2013-3-31,63.0,59.2,57.2,57.9,54.3,50.7,89,84,73,29.79,29.53,13,4,16,0.16
2013-4-1,66.7,60.0,55.4,54.1,51.0,48.7,87,73,56,29.82,29.58,16,6,22,0.37
2013-4-2,64.2,60.0,57.0,59.0,55.4,52.7,88,85,81,29.67,29.50,11,3,18,0.45
2013-4-3,66.9,60.5,55.6,55.6,52.4,49.5,87,76,58,29.85,29.64,9,3,13,0.00
2013-4-6,65.1,61.7,60.3,56.5,55.2,54.3,83,80,73,29.91,29.82,4,1,6,1.14
2013-4-7,71.4,63.5,55.2,54.9,51.3,39.7,81,66,46,29.88,29.73,14,5,17,12.61
2013-4-8,64.6,56.4,48.9,51.3,43.5,37.9,78,63,45,29.97,29.85,12,4,15,0.00
2013-4-9,65.8,60.1,55.8,53.8,51.6,48.9,86,74,58,30.03,29.88,9,5,13,0.00
2013-4-10,67.8,61.8,57.6,55.8,53.3,51.4,82,74,62,30.15,29.97,10,4,15,0.00
2013-4-11,69.1,61.7,52.7,55.0,50.8,46.9,85,69,47,30.17,30.09,9,4,13,0.00
2013-4-12,66.0,62.1,60.4,57.2,55.8,55.0,83,80,73,30.15,30.06,9,6,12,0.00
2013-4-13,73.6,64.3,57.9,59.2,55.6,53.1,85,75,51,30.35,30.12,9,3,12,0.00
2013-4-14,76.1,65.5,56.3,56.3,52.9,49.1,85,66,42,30.44,30.35,10,2,12,0.00
2013-4-15,76.6,64.6,56.7,58.8,54.1,49.3,84,70,45,30.41,30.20,8,4,13,0.00
2013-4-16,75.2,65.4,56.5,60.6,56.2,52.0,86,74,50,30.32,30.20,10,2,13,0.00
2013-4-17,76.8,66.4,58.5,58.1,55.6,50.7,83,70,42,30.35,30.23,9,3,12,0.00
2013-4-18,77.7,66.8,57.0,59.7,55.7,51.8,85,69,42,30.29,30.15,9,3,12,0.00
2013-4-19,76.1,67.2,59.2,62.4,56.6,51.8,84,70,48,30.17,30.00,10,3,13,0.00
2013-4-20,64.8,61.6,56.8,56.8,52.2,47.7,85,72,62,30.15,30.06,10,4,14,0.00
2013-4-21,64.4,58.8,52.7,52.0,47.7,43.9,83,68,49,30.15,30.03,11,4,13,0.00
2013-4-22,58.1,54.2,50.9,50.7,48.0,44.2,85,80,70,30.15,29.97,9,3,12,0.00
2013-4-23,68.0,60.0,52.3,54.5,50.8,47.8,86,73,55,30.38,30.12,6,2,12,0.00
2013-4-24,81.3,66.5,54.7,56.7,51.9,48.4,80,61,37,30.44,30.32,8,3,11,0.00
2013-4-25,83.5,70.5,60.4,60.6,54.8,48.4,79,59,31,30.41,30.20,8,2,11,0.79
2013-4-26,69.6,66.1,61.5,60.3,56.6,53.4,81,72,62,30.26,30.09,9,2,11,0.00
2013-5-1,65.1,65.1,65.1,57.9,57.7,57.6,78,77,77,30.15,30.15,4,3,6,0.07
2013-5-2,75.2,67.4,62.8,63.1,59.1,56.8,85,75,59,30.15,30.00,12,3,13,0.15
2013-5-3,81.5,69.2,60.1,63.0,57.7,54.0,82,68,46,30.12,29.97,11,3,12,0.00
2013-5-4,81.5,71.4,62.4,64.6,58.2,52.9,80,64,46,30.09,29.97,10,3,11,0.00
2013-5-5,73.0,66.1,62.1,62.4,57.8,54.3,83,75,61,30.15,30.03,8,2,10,0.18
2013-5-6,67.8,63.4,59.9,61.7,58.3,55.0,86,84,80,30.09,29.97,7,2,11,0.95
2013-5-7,73.4,66.2,62.2,63.7,60.0,57.6,86,81,66,30.15,30.06,9,2,13,0.00
2013-5-8,77.7,68.9,61.5,63.5,59.7,56.7,85,74,57,30.12,30.00,8,2,12,0.00
2013-5-9,79.5,69.7,61.2,64.6,60.5,56.5,86,74,52,30.09,30.00,10,3,12,0.00
2013-5-10,75.9,69.7,65.5,64.9,62.8,60.8,86,79,66,30.12,30.00,7,2,9,0.00
2013-5-11,75.7,69.3,65.1,63.7,61.6,59.4,85,77,59,30.06,29.94,12,3,17,0.00
2013-5-12,74.7,67.9,62.6,62.8,59.7,57.2,84,76,63,30.03,29.94,13,4,16,0.00
2013-5-13,77.4,68.5,59.9,58.1,52.7,40.8,83,61,28,30.12,30.00,14,5,26,0.00
2013-5-14,77.2,67.4,58.1,59.7,52.8,45.9,81,61,42,30.12,29.97,9,2,13,0.00
2013-5-15,71.6,65.5,59.7,59.4,56.6,52.2,83,74,53,29.97,29.76,10,4,19,0.00
2013-5-16,74.5,68.4,63.0,63.1,52.3,43.5,81,58,43,29.76,29.58,18,5,30,0.39
2013-5-17,70.5,66.4,62.8,62.4,57.6,52.3,85,74,56,30.00,29.64,13,5,17,0.02
2013-5-18,80.6,70.0,60.3,62.1,56.7,51.3,80,64,39,30.12,29.94,9,3,14,0.00
2013-5-19,72.0,66.9,62.2,59.4,55.3,50.5,83,67,52,30.17,29.91,12,6,18,0.00
2013-5-20,70.7,65.1,59.5,55.9,52.4,48.4,81,65,46,30.23,30.15,11,3,13,0.00
2013-5-21,70.0,65.6,59.9,55.9,53.4,49.3,83,66,52,30.15,29.91,8,3,12,0.00
2013-5-22,77.7,65.2,59.4,63.3,57.9,54.3,84,78,56,29.91,29.47,9,4,13,0.87
2013-5-23,68.5,63.3,59.2,59.0,56.9,54.5,86,80,64,29.76,29.50,89,4,89,0.31
2013-5-24,67.1,63.2,58.5,57.2,52.7,47.1,84,70,52,29.97,29.70,21,9,28,0.00
2013-5-25,66.2,61.0,57.6,52.0,48.6,45.1,70,64,49,29.97,29.88,20,8,31,0.00
2013-5-26,67.8,60.4,52.2,52.2,48.8,45.5,82,66,53,30.09,29.91,11,4,17,0.02
2013-5-27,71.6,66.4,62.4,56.1,51.0,34.7,76,60,28,30.15,30.00,9,5,12,0.00
2013-5-28,76.6,65.8,59.5,56.7,52.9,45.7,81,65,34,30.03,29.76,10,3,13,0.00
2013-5-29,68.4,63.6,59.4,59.4,54.3,50.0,83,72,54,29.88,29.79,62,5,62,0.04
2013-5-30,64.2,60.2,55.4,53.8,51.3,49.1,81,73,62,29.88,29.79,16,6,20,0.20
2013-5-31,67.1,56.7,32.0,56.1,44.6,0.0,84,63,60,29.85,29.76,16,6,20,0.05
2013-6-1,69.4,60.9,32.0,59.2,52.3,0.0,84,73,68,29.94,0.00,9,2,11,0.39
2013-6-2,73.8,66.2,58.3,62.6,58.8,53.6,86,78,65,30.09,29.88,11,2,13,0.02
2013-6-3,77.0,67.7,61.3,62.8,59.6,56.3,86,76,59,30.09,30.00,10,2,14,0.02
2013-6-4,77.5,68.8,61.9,64.8,60.9,57.2,85,77,60,30.15,30.00,11,3,16,0.00
2013-6-5,79.0,71.2,64.2,66.7,62.1,59.2,84,74,57,30.20,30.06,11,2,13,0.05
2013-6-6,82.2,71.7,62.1,66.9,60.7,56.5,82,69,51,30.23,30.12,9,3,13,0.00
2013-6-7,83.5,73.8,64.6,65.5,61.3,58.1,80,66,48,30.17,30.06,13,4,17,0.00
2013-6-8,82.4,73.1,64.9,65.1,61.6,58.3,81,69,50,30.15,30.03,11,3,13,0.00
2013-6-9,78.6,71.7,66.0,67.8,61.4,54.3,83,71,48,30.12,29.97,10,3,13,0.00
2013-6-10,74.8,70.0,65.7,63.5,60.7,56.5,84,73,56,30.03,29.94,12,4,13,0.00
2013-6-11,77.4,70.9,63.0,63.1,60.5,57.2,83,71,58,30.06,29.97,12,4,15,0.00
2013-6-12,88.3,77.5,65.3,63.5,56.7,46.8,81,53,25,30.15,30.03,13,4,23,0.00
2013-6-13,88.7,77.2,66.6,57.4,52.4,46.2,62,44,25,30.17,30.06,9,4,20,0.00
2013-6-14,84.6,75.1,65.3,60.8,56.0,52.0,73,52,39,30.17,30.06,12,4,16,0.00
2013-6-15,80.8,69.9,66.6,64.8,61.2,60.1,81,74,57,30.20,30.12,4,0,5,0.00
2013-6-17,75.6,74.9,74.3,63.7,63.3,63.0,69,68,66,30.17,30.12,2,1,3,0.00
2013-6-18,92.5,81.7,72.5,71.4,65.1,61.5,71,58,40,30.17,30.06,10,2,12,0.00
2013-6-19,93.2,83.1,73.4,69.6,64.7,56.7,73,55,30,30.15,30.06,9,3,12,0.00
2013-6-20,92.1,81.5,71.2,68.0,65.4,60.4,78,60,36,30.15,30.06,11,2,15,0.00
2013-6-21,86.9,81.0,74.5,68.7,65.9,61.9,79,61,46,30.17,30.09,8,1,11,0.00
2013-6-22,82.6,75.3,69.4,67.3,64.1,59.7,81,69,51,30.17,30.06,10,2,13,0.00
2013-6-24,69.3,68.7,68.2,60.1,59.7,59.4,75,73,71,30.06,30.00,6,3,12,0.00
2013-6-25,81.0,72.2,63.1,63.3,56.7,47.1,77,60,31,30.17,30.03,14,5,60,0.00
2013-6-26,78.6,70.7,64.8,62.2,57.0,52.7,77,62,47,30.23,30.12,9,3,13,0.00
2013-6-27,79.5,69.4,60.3,59.9,56.3,52.9,79,64,44,30.20,30.12,13,4,15,0.00
2013-6-28,78.1,70.1,64.2,62.8,58.3,53.8,82,67,45,30.17,30.03,13,4,16,0.00
2013-6-29,75.9,64.9,59.4,56.3,54.1,52.3,79,69,46,30.12,30.06,8,3,13,0.00
2013-6-30,75.4,75.4,75.4,53.1,53.1,53.1,46,46,46,30.06,30.06,6,6,8,0.00
2013-7-1,81.0,73.0,63.0,61.0,57.5,53.4,78,60,41,30.23,30.15,11,3,15,0.00
2013-7-2,83.8,74.6,65.1,61.3,56.4,51.8,73,55,34,30.20,30.09,10,3,12,0.00
2013-7-3,81.7,73.8,64.6,63.7,58.3,51.4,81,61,36,30.15,30.06,11,3,13,0.00
2013-7-4,81.5,73.3,64.4,66.2,62.5,58.1,82,70,47,30.15,30.03,9,2,13,0.17
2013-7-5,92.3,79.4,66.7,65.5,62.1,55.6,83,59,30,30.17,30.12,11,4,17,0.00
2013-7-6,91.4,79.6,69.8,68.2,60.1,52.9,77,53,28,30.20,30.12,13,3,17,5.02
2013-7-7,90.5,76.4,68.9,67.3,62.9,59.7,81,65,39,30.20,30.09,12,4,16,0.00
2013-7-8,89.6,76.0,67.8,67.8,64.4,61.7,81,69,43,30.20,30.12,9,2,13,0.00
2013-7-9,87.3,76.2,68.2,68.5,64.8,62.1,81,69,48,30.20,30.06,10,2,13,0.00
2013-7-10,87.3,77.0,68.0,70.9,66.3,61.3,81,71,50,30.12,29.97,12,3,14,0.00
2013-7-11,81.7,73.6,69.6,68.0,65.4,63.5,82,76,60,30.06,29.94,4,2,10,0.00
2013-7-21,71.8,71.6,71.6,64.4,64.2,64.2,78,78,78,30.06,30.06,2,2,4,0.00
2013-7-22,93.4,78.9,67.8,72.7,67.0,61.3,81,68,44,30.12,30.00,10,3,18,0.00
2013-7-23,93.9,82.5,72.7,73.8,68.8,63.3,81,66,40,30.09,29.97,10,3,13,0.00
2013-7-24,92.3,82.7,74.1,73.8,70.0,66.6,81,67,44,30.15,30.03,11,3,16,0.00
2013-7-25,91.2,82.3,73.0,74.8,71.6,66.0,80,71,53,30.15,30.06,31,1,11,0.00
2013-7-26,94.5,84.9,77.0,77.0,71.7,66.7,80,66,44,30.15,30.03,11,2,13,0.00
2013-7-27,96.1,85.1,76.3,73.8,70.0,64.8,78,62,39,30.12,30.00,19,2,19,0.00
2013-7-28,97.0,85.8,75.6,72.9,68.6,62.6,82,59,33,30.20,30.03,9,2,11,0.00
2013-7-29,93.4,84.9,76.8,75.6,67.9,55.9,80,59,30,30.20,30.06,31,3,31,0.00
2013-7-30,90.1,82.5,76.3,73.0,66.9,60.6,81,61,39,30.15,30.00,12,4,18,0.00
2013-7-31,92.1,81.2,74.1,69.6,62.0,52.9,72,54,27,30.09,29.97,13,4,18,0.00
2013-8-1,94.3,81.6,73.8,68.5,60.3,51.3,70,50,25,30.12,30.03,12,4,20,0.00
2013-8-2,91.6,83.0,73.0,72.7,67.0,62.8,74,60,42,30.17,30.06,9,3,12,0.00
2013-8-3,94.3,83.3,73.4,70.9,66.3,62.1,75,58,41,30.20,30.09,11,4,15,0.00
2013-8-4,98.1,85.8,74.3,68.5,62.6,43.2,69,49,16,30.17,30.09,12,3,15,0.00
2013-8-5,97.2,85.7,75.0,65.5,57.5,43.7,61,41,19,30.17,30.03,8,2,23,0.00
2013-8-6,110.8,88.6,79.3,73.2,59.9,41.4,75,41,20,30.12,30.00,12,1,23,0.00
2013-8-7,96.6,85.7,74.3,73.0,65.5,49.1,80,55,21,30.06,29.97,8,2,12,0.00
2013-8-8,98.2,86.8,74.5,68.2,56.8,39.2,62,40,14,30.09,29.97,70,2,70,0.00
2013-8-9,90.0,80.0,72.9,67.3,62.5,56.5,78,56,41,30.06,29.88,18,4,24,0.00
2013-8-10,92.1,82.4,71.2,66.6,62.5,56.7,76,53,31,30.03,29.85,12,3,19,0.00
2013-8-11,90.3,80.5,72.5,67.6,62.7,59.5,73,56,39,30.06,29.94,10,3,13,0.00
2013-9-1,74.8,74.7,74.5,63.7,63.4,63.1,69,68,67,30.15,30.12,0,0,0,0.00
2013-9-2,86.5,76.0,65.7,66.7,62.4,58.5,79,64,41,30.17,30.09,10,3,11,0.00
2013-9-3,86.7,77.2,68.7,70.7,64.3,58.8,75,65,46,30.26,30.17,8,2,10,0.00
2013-9-4,90.3,78.3,68.5,68.2,63.5,56.7,78,63,33,30.26,30.12,9,3,13,0.00
2013-9-5,89.4,78.0,68.9,69.4,63.2,58.3,74,62,37,30.15,30.00,11,3,13,0.00
2013-9-6,89.1,78.1,70.2,69.1,64.6,60.8,75,64,45,30.03,29.94,12,2,17,0.00
2013-9-7,89.1,77.6,69.4,69.4,65.5,53.6,79,68,45,30.17,30.00,10,2,14,0.00
2013-9-8,86.7,78.3,71.2,72.3,64.9,50.4,82,65,44,30.20,30.12,10,2,11,0.00
2013-9-9,84.4,78.2,74.1,74.3,68.8,62.2,85,74,58,30.17,30.06,13,4,16,0.00
2013-9-10,79.3,74.1,69.4,66.7,64.9,63.3,84,74,62,30.12,29.97,10,3,13,0.16
2013-9-11,79.5,74.2,68.9,69.1,65.3,61.0,87,74,62,30.06,29.94,13,5,23,0.00
2013-9-12,76.5,72.6,68.9,62.4,59.8,57.2,74,65,56,30.03,29.94,12,4,17,0.00
2013-9-13,80.4,70.7,62.1,63.3,59.5,56.1,82,69,47,30.15,29.97,10,3,14,0.00
2013-9-14,78.3,70.7,61.9,63.3,59.1,54.9,79,68,46,30.17,30.09,9,2,12,0.00
2013-9-15,72.7,68.1,64.8,66.9,61.9,57.6,87,81,71,30.12,29.85,8,2,10,0.72
2013-9-16,78.6,71.2,63.0,66.0,62.9,58.3,86,76,64,29.85,29.73,13,3,16,0.00
2013-9-17,78.4,71.9,67.6,66.0,61.9,56.3,84,72,49,29.76,29.61,17,5,20,0.00
2013-9-18,77.9,69.8,61.5,63.3,60.2,56.3,84,73,57,29.82,29.73,10,3,13,0.00
2013-9-19,79.9,72.8,66.7,67.6,64.0,60.3,83,75,63,29.88,29.67,9,3,13,0.00
2013-9-20,84.7,73.5,65.8,65.3,62.3,59.4,82,69,46,30.06,29.85,10,3,12,0.00
2013-9-21,71.8,67.9,65.3,63.5,61.0,58.8,81,79,75,30.09,30.06,4,2,8,0.00
2013-9-25,79.9,70.5,61.2,65.8,61.8,56.5,86,75,57,30.09,30.00,9,2,10,0.00
2013-9-26,81.7,71.9,63.1,66.9,62.8,58.5,85,74,56,30.09,30.00,8,2,11,0.00
2013-9-27,82.4,72.2,64.2,65.8,63.2,58.8,84,74,54,30.06,29.97,8,2,11,0.00
2013-9-28,83.5,72.8,63.9,69.4,64.8,59.0,85,77,62,30.03,29.94,7,2,8,0.00
2013-9-29,75.7,74.3,73.2,70.7,69.3,68.0,85,85,84,29.76,29.70,8,3,11,0.13
2013-9-30,81.1,73.2,67.1,71.8,66.7,61.3,87,81,67,29.70,29.61,11,2,16,0.48
2013-10-1,82.9,72.7,65.1,68.4,64.9,61.3,89,78,56,29.85,29.70,10,2,13,0.02
2013-10-2,83.3,73.7,65.8,68.4,63.3,57.6,84,71,56,30.12,29.82,8,2,11,0.00
2013-10-3,79.5,70.2,63.1,63.1,58.3,54.5,74,67,50,30.29,30.12,8,2,12,0.00
2013-10-4,76.3,69.4,62.6,60.8,58.3,54.9,80,69,56,30.35,30.23,6,3,9,0.00
2013-10-5,74.1,68.3,61.9,67.3,61.5,56.1,87,79,60,30.26,30.06,9,3,17,0.66
2013-10-6,79.2,72.3,66.4,70.2,66.1,62.2,88,81,70,30.09,30.00,8,2,14,0.37
2013-10-7,79.5,73.0,67.6,70.5,66.4,63.5,88,80,68,30.15,30.03,7,1,9,0.00
2013-10-8,76.6,70.0,65.8,67.1,63.6,60.8,86,81,69,30.17,30.06,10,2,16,0.19
2013-10-9,73.9,68.3,64.4,67.8,63.3,60.4,89,84,77,30.17,30.06,4,1,6,0.29
2013-10-10,69.1,65.7,64.4,64.6,61.7,60.4,88,87,86,30.12,30.00,4,2,5,0.00
2013-10-15,76.8,72.2,66.0,68.0,65.5,59.5,85,80,72,30.17,29.97,7,3,10,0.00
2013-10-16,81.7,74.0,66.2,69.8,65.0,59.2,88,75,55,29.97,29.76,13,4,19,0.16
2013-10-17,81.0,68.3,59.0,61.3,56.8,47.1,83,69,31,30.09,29.91,8,2,10,0.00
2013-10-18,77.7,66.4,57.7,64.2,58.2,51.3,83,76,56,30.15,30.03,7,2,10,0.00
2013-10-19,77.7,68.3,61.7,64.2,60.8,57.4,87,78,55,30.29,30.12,7,2,9,0.00
2013-10-20,77.7,68.7,61.3,66.2,61.7,55.8,84,79,64,30.35,30.26,5,3,8,0.00
2013-10-21,79.3,72.8,69.1,67.6,64.6,62.1,84,76,63,30.29,30.20,8,3,11,0.00
2013-10-22,80.6,70.8,64.4,68.2,63.8,60.1,87,79,60,30.26,30.15,7,3,10,0.00
2013-10-23,79.0,71.0,63.3,68.4,64.8,59.2,87,81,66,30.23,30.15,8,3,12,0.00
2013-10-24,76.1,70.5,67.1,67.5,64.7,62.4,87,83,74,30.20,30.15,7,2,10,0.02
2013-10-25,80.6,71.8,65.1,72.1,65.6,60.1,86,81,73,30.23,30.15,5,2,9,0.00
2013-10-26,84.0,72.5,65.1,71.2,66.1,61.0,88,81,64,30.29,30.20,6,2,9,0.00
2013-10-27,81.0,72.2,68.0,70.3,66.6,63.5,88,83,70,30.29,30.20,5,1,8,0.00
2013-10-28,81.3,74.1,68.9,71.8,67.9,63.5,86,81,72,30.23,30.12,8,3,10,0.00
2013-10-29,81.3,76.1,71.4,71.2,69.0,66.7,86,79,71,30.12,30.00,8,2,10,0.00
2013-10-30,79.7,73.2,67.3,69.6,66.7,63.1,87,81,69,30.06,29.97,5,2,9,0.00
2013-10-31,72.7,67.3,65.3,65.7,62.5,61.0,87,85,79,30.17,30.09,5,3,8,0.00
2013-11-1,72.0,69.5,68.5,64.9,63.7,62.8,83,82,79,30.20,30.15,5,2,8,0.00
2013-11-2,76.3,68.9,63.5,67.6,62.7,58.8,86,81,72,30.17,30.06,9,3,16,0.20
2013-11-3,77.7,72.9,68.7,69.6,66.9,64.9,89,82,73,30.06,29.97,10,4,16,0.27
2013-11-4,76.5,71.3,65.8,67.5,63.3,60.3,86,77,60,29.97,29.47,13,4,18,0.83
2013-11-5,72.9,66.4,62.6,63.9,60.6,57.6,89,82,66,29.58,29.38,7,2,11,0.99
2013-11-6,73.9,65.6,58.3,63.9,58.9,54.0,87,80,67,29.94,29.58,8,2,13,0.00
2013-11-7,76.3,67.7,59.2,67.6,62.1,54.9,87,83,74,30.17,29.94,10,3,13,0.00
2013-11-8,78.3,72.0,68.5,69.8,66.1,64.0,86,82,72,30.17,30.09,10,3,13,0.00
2013-11-9,77.0,71.5,68.0,69.6,65.3,61.5,85,81,72,30.12,29.97,12,4,17,0.00
2013-11-10,71.1,66.5,58.3,62.6,59.3,50.2,84,78,69,30.03,29.53,22,6,30,0.50
2013-11-11,62.4,58.2,55.2,52.9,51.3,48.0,86,78,65,29.76,29.41,15,8,25,0.50
2013-11-12,64.8,60.1,55.9,58.6,54.8,50.9,85,83,75,30.00,29.73,8,3,12,0.13
2013-11-13,68.9,63.0,56.7,60.6,56.3,52.3,87,79,71,30.03,29.91,6,2,11,0.00
2013-11-14,74.1,65.2,59.9,61.9,57.9,54.5,83,78,62,30.03,29.88,7,2,11,0.00
2013-11-15,64.9,61.7,58.1,59.9,57.2,53.6,88,86,83,30.06,29.85,9,2,9,22.12
2013-11-16,71.6,64.2,58.6,60.3,56.6,53.8,88,77,61,30.15,30.03,5,2,8,0.00
2013-11-17,72.5,64.3,59.5,60.8,56.5,53.2,86,76,65,30.20,30.09,8,3,13,0.00
2013-11-18,69.4,62.2,55.4,58.8,54.7,50.9,86,77,65,30.15,29.70,10,4,14,0.00
2013-11-19,67.1,60.5,55.8,59.5,54.2,52.2,88,80,65,29.79,29.47,9,4,16,0.09
2013-11-20,64.9,57.6,53.4,58.1,51.5,47.1,89,81,67,29.79,29.35,12,3,16,3.47
2013-11-21,60.3,55.8,52.3,49.1,46.6,42.1,87,72,61,29.76,29.50,14,5,20,0.29
2013-11-22,54.0,52.0,50.5,49.1,47.3,45.9,88,84,77,29.58,29.44,8,2,10,0.64
2013-11-23,51.1,50.0,48.6,47.3,46.3,44.8,89,87,86,29.58,29.47,9,4,15,1.16
2013-11-24,57.0,51.5,48.9,49.8,46.6,44.2,88,84,76,29.76,29.55,5,2,9,0.02
2013-11-25,60.6,49.9,42.6,50.0,41.9,29.8,87,75,54,29.94,29.73,11,5,20,0.00
2013-11-26,48.7,43.2,39.7,35.6,32.6,29.5,74,67,55,30.06,29.91,13,8,23,0.00
2013-11-27,47.7,42.5,39.6,36.9,34.1,31.3,79,72,65,30.32,30.00,9,4,16,0.00
2013-11-28,49.1,42.4,36.1,41.7,35.4,31.6,86,77,65,30.35,30.26,18,4,18,0.00
2013-11-29,59.9,48.7,41.5,46.6,40.9,36.0,85,75,61,30.32,30.12,7,3,12,0.00
2013-11-30,58.8,48.4,39.7,46.4,40.2,34.5,86,74,46,30.15,29.85,6,3,11,0.00
2013-12-1,59.4,56.4,51.3,44.2,42.6,39.9,68,60,52,29.85,29.67,15,9,24,0.00
2013-12-2,68.4,60.8,55.4,54.7,48.0,44.4,75,63,53,30.15,29.76,12,6,18,0.00
2013-12-4,61.2,49.9,41.5,49.3,40.4,32.0,82,70,60,30.29,30.20,7,3,9,0.00
2013-12-5,57.2,46.8,38.3,46.0,39.8,34.0,85,77,59,30.23,30.15,6,2,8,0.00
2013-12-6,56.3,48.9,41.2,45.9,41.2,28.0,84,75,36,30.17,29.97,7,2,8,0.00
2013-12-7,60.8,50.0,42.4,46.6,42.7,38.5,87,77,59,30.38,30.03,6,2,8,0.00
2013-12-8,59.9,50.5,42.3,49.6,43.7,37.6,84,78,67,30.47,30.32,7,3,10,0.00
2013-12-9,61.9,53.2,47.3,51.1,46.1,42.1,85,77,66,30.50,30.41,5,2,8,0.00
2013-12-10,59.0,49.9,43.2,47.5,43.4,39.4,88,79,65,30.56,30.44,5,2,8,0.00
2013-12-11,62.1,50.7,42.6,53.2,44.4,38.1,88,80,70,30.56,30.50,7,2,9,0.00
2013-12-12,58.8,50.5,44.6,50.4,45.2,41.0,88,83,73,30.56,30.41,7,3,9,0.00
2013-12-13,55.0,46.8,42.3,46.8,41.9,38.3,90,84,74,30.44,30.29,9,3,9,0.00
2013-12-14,54.1,47.5,40.8,47.7,43.1,38.3,91,85,76,30.47,30.35,7,2,9,0.00
2013-12-15,57.9,52.3,48.2,50.2,46.1,41.7,87,80,68,30.56,30.41,7,2,10,0.00
2013-12-16,58.8,50.2,42.3,44.6,41.3,37.6,84,72,58,30.59,30.50,6,2,9,0.00
2013-12-17,60.8,48.6,39.2,46.2,38.6,33.1,84,69,53,30.56,30.44,6,3,9,0.00
2013-12-18,57.7,46.2,38.3,47.8,37.7,32.0,83,73,55,30.47,30.29,6,3,10,0.00
2013-12-19,58.8,47.4,37.4,47.8,40.1,32.5,84,76,65,30.35,30.17,7,4,12,0.00
2013-12-20,57.2,54.8,52.7,52.0,49.2,45.0,89,82,71,30.53,30.17,8,3,11,0.09
2013-12-21,63.0,54.2,47.7,53.2,49.0,44.4,89,83,70,30.65,30.53,5,2,8,0.00
2013-12-22,58.1,51.6,46.6,50.7,47.0,43.3,89,85,75,30.59,30.44,5,2,8,0.00
2013-12-23,58.5,48.9,42.1,51.6,45.2,39.6,93,87,77,30.44,30.29,6,2,9,0.00
2013-12-30,55.0,53.1,51.3,51.8,48.8,46.6,90,86,81,30.23,30.12,5,2,9,0.00
2013-12-31,62.1,54.0,50.4,51.6,47.2,44.8,89,78,63,30.15,30.06,4,2,6,0.00
2014-1-1,61.2,51.8,46.2,50.7,45.2,41.9,86,79,66,30.20,30.06,4,2,6,0.00
2014-1-2,58.5,52.2,43.5,52.9,47.5,40.6,90,84,78,30.17,30.06,7,3,12,2.19